Location: Unspecified
(52.0000°N, 4.4000°E)
Time: 21:43:49
(UTC+00:00)

Cosmos 1603 - Pass Details

Date: 14 May 2025
Orbit: 831 x 857 km, 71.0° (Epoch: 15 June)

Event Time Altitude Azimuth Distance (km) Brightness Sun altitude
Rises 20:43:30 0° 211° (SSW) 3,396 6.7 -9.5°
Reaches altitude 10° 20:45:57 10° 212° (SSW) 2,461 6.0 -9.8°
Maximum altitude 20:51:37 82° 301° (WNW) 854 3.8 -10.4°
Drops below altitude 10° 20:57:17 10° 30° (NNE) 2,460 6.4 -10.9°
Sets 20:59:43 0° 31° (NNE) 3,395 7.1 -11.1°
